Preview of NWS' New Version of Forecast
This preview is not operational and should not be used for support decisions.
Latest weather observations around

Jonesboro, Jonesboro Municipal Airport (KJBR)

Using English Units (Switch to International System of Units)
Date/ Time (CDT) Wind (mph) Vis. (mi) Weather Sky Cond. Temp (°F) Rel. Humidity Wind Chill (°F) Heat Index (°F) Pressure Precip. (in)
Air Dwpt 6 hour Altimeter (inHg) Sea level (inHg) 1 hr 3 hr 6 hr
Max Min
Apr 25 09:53 NW 9 10 Clear CLR 69 56     63%     30.04 30.03      
Apr 25 07:53 WNW 8 10 Clear CLR 59 55     87%     30.02 30.02      
Apr 25 06:53 W 8 10 Clear CLR 56 55     97%     30.02 30.01      
Apr 25 05:53 WNW 7 10 Clear CLR 56 55     97%     30.01 30      
Apr 25 04:53 WNW 9 10 Clear CLR 57 55     93%     30.01 30      
Apr 25 03:53 W 6 10 Clear CLR 54 54     100%     30.01 30.01      
Apr 25 02:53 W 7 10 Clear CLR 55 54     96%     30.01 30.01      
Apr 25 01:53 W 5 10 Clear CLR 52 52     100%     30.02 30.01      
Apr 25 00:53 W 3 10 Clear CLR 54 54     100%     30.02 30.02      
Apr 24 22:53 Calm 10 Clear CLR 54 54     100%     30.04 30.03      
Apr 24 21:53 Calm 10 Clear CLR 55 54     96%     30.04 30.03      
Apr 24 20:53 Calm 10 Clear CLR 57 56     96%     30.03 30.02      
Apr 24 19:53 Calm 10 Cloudy OVC070 65 55     70%     30 30      
Apr 24 18:53 N 6 10 Cloudy OVC070 67 55     66%     29.99 29.98      
Apr 24 17:53 NNW 8 10 Cloudy OVC065 67 55     66%     29.99 29.98      
Apr 24 16:53 N 11 10 Cloudy FEW042 BKN050 OVC060 67 54     63%     29.98 29.98      
Apr 24 15:53 6 10 Partly Cloudy FEW037 SCT055 68 57     68%     29.98 29.97      
Apr 24 14:53 NNW 11 10 Partly Cloudy FEW030 FEW036 SCT060 67 57     71%     29.99 29.98      
Apr 24 13:53 NNW 10 10 Cloudy OVC042 64 56     75%     30.01 30      
Apr 24 12:53 NNW 7 10 Cloudy FEW021 OVC034 63 57     81%     30.02 30.01      
Apr 24 12:19 NW 7 10 Cloudy SCT016 OVC033 63 59     87%     30.02        
Apr 24 11:35 NW 8 10 Cloudy BKN017 OVC033 62 57     84%     30.02        
Apr 24 11:23 NNW 13 10 Cloudy SCT017 SCT021 OVC033 63 58     84%     30.02        
Apr 24 10:53 NW 8 10 Cloudy OVC018 61 58     90%     30.02 30.02      
Apr 24 09:53 NNW 5 10 Cloudy OVC022 60 57     90%     30.01 30.01      
Apr 24 08:53 NW 8 10 Cloudy OVC023 58 57     97%     30.01 30      
Apr 24 08:08 NW 7 8 Mostly Cloudy BKN027 58 57     97%     30        
Apr 24 08:01 NNW 6 7 Partly Cloudy SCT027 58 57     97%     30        
Apr 24 07:53 NNW 6 7 Mostly Cloudy BKN029 58 57     97%     30 29.99      
Apr 24 07:08 Calm 5 Fog/Mist FEW019 SCT029 56 56     100%     29.99        
Apr 24 06:53 Calm 5 Fog/Mist SCT018 BKN029 56 56     100%     29.98 29.98      
Apr 24 06:44 NW 5 5 Fog/Mist FEW018 OVC029 56 56     100%     29.98        
Apr 24 06:15 NW 3 6 Fog/Mist FEW013 OVC030 56 56     100%     29.97        
Apr 24 05:53 NW 3 7 Cloudy FEW012 OVC029 57 57     100%     29.96 29.96      
Apr 24 04:53 NW 6 7 Cloudy OVC024 56 56     100%     29.95 29.94      
Apr 24 03:53 NW 3 7 Cloudy OVC018 56 56     100%     29.94 29.93      
Apr 24 03:33 N 5 7 Mostly Cloudy SCT015 BKN026 56 56     100%     29.93        
Apr 24 02:32 N 6 10 Cloudy BKN008 OVC029 57 57     100%     29.93        
Apr 24 02:22 NNW 8 10 Cloudy SCT008 OVC029 57 57     100%     29.93        
Apr 24 02:09 N 7 9 Cloudy OVC028 57 57     100%     29.93        
Apr 24 01:07 NNW 6 10 Cloudy BKN023 OVC039 57 57     100%     29.93        
Apr 24 00:53 NNW 8 10 Cloudy FEW023 FEW030 OVC039 56 56     100%     29.93 29.93      
Apr 24 00:40 NNW 7 10 Cloudy SCT023 SCT030 OVC037 56 56     100%     29.93        
Apr 24 00:32 NNW 8 10 Mostly Cloudy FEW006 SCT023 BKN029 56 56     100%     29.93        
Apr 23 23:53 NW 6 10 Cloudy OVC038 55 55     100%     29.93 29.93      
Apr 23 23:02 NW 3 10 Mostly Cloudy SCT018 BKN036 54 54     100%     29.94        
Apr 23 22:53 WNW 3 10 Cloudy BKN018 BKN034 OVC050 54 54     100%     29.94 29.94      
Apr 23 21:53 Calm 10 Mostly Clear FEW027 54 54     100%     29.95 29.94      
Apr 23 21:46 NW 3 10 Partly Cloudy SCT027 54 54     100%     29.94        
Apr 23 20:53 Calm 10 Cloudy OVC029 56 56     100%     29.92 29.92      
Apr 23 20:51 Calm 10 Cloudy OVC029 55 55     100%     29.92        
Apr 23 20:39 NNW 3 10 Cloudy OVC030 56 56     100%     29.92        
Apr 23 19:53 NNW 3 10 Cloudy FEW021 OVC029 56 55     97%     29.91 29.91      
Apr 23 19:49 NNW 3 10 Cloudy FEW021 OVC031 55 55     100%     29.91        
Apr 23 18:53 Calm 10 Cloudy OVC021 56 55     97%     29.9 29.89 0   0
Apr 23 17:53 Calm 5 Light Rain and Fog/Mist FEW009 OVC017 56 55     97%     29.89 29.89 0    
Apr 23 17:50 Calm 4 Light Rain and Fog/Mist FEW009 OVC017 55 55     100%     29.89   0    
Apr 23 16:53 W 5 8 Cloudy OVC017 56 55     97%     29.88 29.88 0    
Apr 23 16:22 W 5 10 Cloudy BKN012 OVC021 56 55     97%     29.88        
Apr 23 15:53 Calm 10 Cloudy FEW011 SCT017 OVC024 56 55     97%     29.88 29.87   0  
Apr 23 14:53 WNW 5 10 Cloudy OVC015 55 54     96%     29.88 29.88 0    
Apr 23 14:46 NW 5 10 Cloudy BKN013 BKN017 OVC024 56 54     93%     29.88   0    
Apr 23 14:26 NW 6 9 Cloudy FEW009 BKN017 OVC023 56 55     97%     29.88   0    
Apr 23 14:11 WNW 7 7 Light Rain FEW009 BKN014 OVC022 55 54     96%     29.88   0    
Apr 23 13:53 NW 6 10 Cloudy BKN020 OVC026 56 54     93%     29.88 29.88 0    
Apr 23 13:33 NNW 6 10 Cloudy FEW008 SCT012 OVC018 56 54     93%     29.88   0    
Apr 23 13:23 NW 6 8 Light Rain SCT009 BKN014 OVC022 55 54     96%     29.88   0    
Apr 23 13:14 NW 6 5 Light Rain and Fog/Mist BKN007 OVC022 55 55     100%     29.88   0    
Apr 23 13:06 NW 5 4 Light Rain and Fog/Mist FEW009 SCT016 OVC022 56 55     97%     29.88   0    
Apr 23 12:53 NW 7 4 Light Rain and Fog/Mist FEW010 SCT014 OVC020 55 54     96%     29.88 29.88 0   0
Apr 23 12:21 NW 7 10 Cloudy FEW009 BKN016 OVC021 55 54     96%     29.88   0    
Apr 23 11:53 NNW 5 10 Light Rain SCT009 OVC014 55 54     96%     29.88 29.88 0    
Apr 23 11:01 NW 7 10 Cloudy BKN013 OVC018 54 53     97%     29.88        
Apr 23 10:53 NW 9 10 Cloudy FEW008 OVC016 55 54     96%     29.88 29.87 0    
Apr 23 10:12 N 6 10 Light Rain FEW009 OVC018 54 54     100%     29.87   0    
Apr 23 10:00 N 7 10 Light Rain FEW010 BKN016 OVC026 54 53     97%     29.87   0    
Apr 23 09:53 N 8 9 Light Rain SCT010 BKN014 OVC026 54 54     100%     29.87 29.86 0 0  
Apr 23 09:41 N 5 6 Light Rain and Fog/Mist SCT010 BKN017 OVC024 55 55     100%     29.86   0    
Apr 23 09:33 5 6 Light Rain and Fog/Mist BKN010 OVC015 55 55     100%     29.86   0    
Notice The following observation data may not be complete
Apr 23 09:13   8 Light Rain SCT010 OVC015          %         0    
Apr 23 08:53 NNW 6 10 Light Rain OVC014 55 55     100%     29.85 29.85 0    
Apr 23 08:13 NW 7 10 Light Rain BKN012 OVC017 55 55     100%     29.85   0    
Apr 23 07:53 NNW 8 10 Light Rain SCT008 OVC016 55 55     100%     29.84 29.84 0    
Apr 23 06:53 N 7 10 Light Rain FEW008 OVC020 56 56     100%     29.82 29.82 0   0
Apr 23 06:08 N 6 10 Light Rain FEW006 SCT010 OVC023 57 57     100%     29.81   0    
Apr 23 06:01 N 8 8 Light Rain SCT007 BKN012 OVC021 57 57     100%     29.8   0    
Apr 23 05:53 N 5 4 Light Rain and Fog/Mist BKN007 BKN014 OVC024 58 58     100%     29.8 29.79 0    
Apr 23 05:39 NW 6 5 Rain and Fog/Mist FEW008 BKN013 OVC022 58 58     100%     29.79   0    
Apr 23 05:11 WNW 7 5 Light Rain and Fog/Mist OVC011 58 58     100%     29.79   0    
Apr 23 04:53 WNW 6 7 Light Rain OVC009 58 58     100%     29.79 29.78 0    
Apr 23 04:23 NW 5 9 Light Rain BKN009 OVC013 58 58     100%     29.79   0    
Apr 23 04:06 NW 6 10 Light Rain SCT009 BKN013 OVC031 58 58     100%     29.79   0    
Apr 23 03:53 NW 6 10 Light Rain FEW011 BKN029 OVC090 58 58     100%     29.79 29.78 0 0  
Apr 23 03:30 NW 5 10 Light Rain BKN013 BKN070 OVC090 58 58     100%     29.79   0    
Apr 23 03:21 NW 5 10 Light Rain FEW010 OVC015 58 58     100%     29.79   0    
Apr 23 03:11 NW 5 10 Light Rain FEW009 BKN013 OVC022 58 58     100%     29.79   0    
Apr 23 02:53 NW 5 7 Light Rain FEW009 OVC020 58 58     100%     29.79 29.79 0    
Apr 23 02:43 NW 5 6 Light Rain and Fog/Mist SCT011 OVC020 59 59     100%     29.79   0    
Apr 23 01:53 N 5 10 Cloudy OVC011 59 59     100%     29.81 29.8 0    
Apr 23 01:45 N 3 10 Light Rain BKN011 OVC014 59 59     100%     29.81   0    
Apr 23 01:36 NNW 6 10 Light Rain BKN008 OVC017 59 59     100%     29.82   0    
Apr 23 01:06 NNE 7 2 Heavy Rain and Fog/Mist FEW005 BKN027 OVC035 59 59     100%     29.82   0    
Apr 23 00:53 NE 7 5 Light Rain and Fog/Mist FEW005 BKN017 OVC032 59 59     100%     29.83 29.82 0   1
Apr 23 00:35 NNE 7 5 Light Rain and Fog/Mist FEW009 OVC014 59 59     100%     29.83   0    
Notice The following observation data may not be complete
Apr 23 00:04   10 Cloudy OVC010          %              
Apr 22 23:53 NE 7 10 Cloudy OVC008 60 60     100%     29.84 29.84      
Apr 22 21:53 NE 6 10 Cloudy OVC009 60 60     100%     29.88 29.87   1  
Apr 22 20:53 NNW 5 10 Cloudy OVC006 59 59     100%     29.87 29.87 0    
Apr 22 20:08 NW 3 4 Rain and Fog/Mist BKN005 BKN013 OVC028 60 60     100%     29.87   0    
Apr 22 20:00 W 3 3 Rain and Fog/Mist SCT007 BKN012 OVC017 59 59     100%     29.87   0    
Apr 22 19:53 Calm 2.5 Heavy Rain and Fog/Mist FEW007 BKN015 OVC028 60 60     100%     29.87 29.86 0    
Apr 22 19:48 3 2 Heavy Rain and Fog/Mist FEW007 BKN013 OVC028 61 61     100%     29.87   0    
Apr 22 19:34 N 5 0.75 Heavy Rain and Fog/Mist FEW009 BKN013 OVC055 61 60     97%     29.87   0    
Apr 22 19:28 W 5 7 Light Rain BKN013 BKN031 OVC055 61 59     93%     29.86   0    
Apr 22 19:18 WSW 8 10 Cloudy BKN015 OVC050 61 59     93%     29.85   0    
Apr 22 19:10 W 9 10 Light Rain BKN012 BKN017 OVC050 62 60     93%     29.85   0    
Apr 22 19:01 NW 7 10 Thunderstorms BKN015 OVC021 63 60     90%     29.85        
Apr 22 18:53 W 8 10 Cloudy OVC017 63 60     90%     29.85 29.84     0
Apr 22 18:19 W 5 10 Mostly Cloudy BKN017 66 61     84%     29.85        
Apr 22 17:53 SW 5 10 Partly Cloudy SCT090 66 61     84%     29.84 29.84      
Apr 22 17:25 SW 5 10 Partly Cloudy SCT015 63 61     93%     29.85        
Apr 22 17:00 Calm 10 Cloudy BKN016 OVC090 64 63     96%     29.84        
Apr 22 16:53 SSE 5 10 Cloudy BKN014 OVC095 64 61     90%     29.84 29.84      
Apr 22 16:33 S 3 10 Mostly Cloudy BKN014 BKN085 64 62     93%     29.85        
Apr 22 16:14 SSW 6 10 Mostly Cloudy SCT013 BKN080 63 63     100%     29.84        
Apr 22 15:53 WSW 8 10 Cloudy BKN013 OVC070 63        %     29.85 29.84   0  
Apr 22 14:53 SW 11 10 Cloudy OVC011 64        %     29.86 29.85 0    
Apr 22 14:46   10 Cloudy OVC011 63        %     29.85   0    
Apr 22 13:53 SSE 10 3 Light Rain OVC005 61        %     29.86 29.85 0    
Apr 22 13:45 ESE 11 2.5 Light Rain OVC005 61        %     29.86   0    
Apr 22 13:35 ESE 13 3 Light Rain BKN005 OVC009 59        %     29.86   0    
Apr 22 13:26 E 15 2.5 Light Rain OVC005 59        %     29.86   0    
Apr 22 13:19 E 11 3 Rain OVC005 59        %     29.86   0    
Apr 22 12:53 E 15 2.5 Heavy Rain and Fog/Mist BKN006 OVC011 59 59     100%     29.87 29.86 0   1
Apr 22 12:27 E 16 2.5 Rain and Fog/Mist OVC006 58 58     100%     29.88   0    
Apr 22 11:53 ENE 14 5 Light Rain and Fog/Mist OVC005 57 57     100%     29.9 29.9 0    
Apr 22 11:38 NE 11 4 Light Rain and Fog/Mist OVC005 57 57     100%     29.91   0    
Apr 22 11:31 NNE 10 2.5 Rain and Fog/Mist OVC007 57 57     100%     29.92   0    
Apr 22 11:23 NE 11 1.75 Rain BKN007 OVC014 57        %     29.93   0    
Apr 22 11:02 ENE 15 5 Light Rain BKN007 OVC015 57        %     29.94   0    
Jun 10 21:53 S 6 10 Clear CLR 75 62     64%   75 29.97 29.96      
Jun 10 11:53 SW 10 10 Partly Cloudy SCT050 83 59     44%   83 30.01 30.01      
Jun 09 23:53 Calm 10 Clear CLR 62 58     86%     29.95 29.94      
Jun 08 22:53 Calm 10 Clear CLR 63 56     78%     29.93 29.92      
Jun 08 06:53 NNE 6 10 Clear CLR 64 55     73%     30.01 30      
Jun 06 11:53 E 7 10 Mostly Clear FEW003 82 68     63%   85 29.84 29.83      
Jun 06 01:53 Calm 4 Fog/Mist CLR 69 67     93%     29.8 29.79